Location: Gleizolles
(44.4833°N, 6.7667°E)
Time: 11:18:12
(UTC+00:00)

Envisat - Pass Details

Date: 07 December 2021
Orbit: 764 x 766 km, 98.2° (Epoch: 20 January)

Event Time Altitude Azimuth Distance (km) Brightness Sun altitude
Rises 05:19:42 0° 6° (N) 3,244 6.1 -16.4°
Reaches altitude 10° 05:22:08 10° 359° (N) 2,313 5.3 -16.0°
Maximum altitude 05:26:51 40° 292° (WNW) 1,125 3.4 -15.2°
Drops below altitude 10° 05:31:32 10° 223° (SW) 2,297 5.2 -14.4°
Sets 05:33:57 0° 216° (SW) 3,218 6.0 -14.0°
